Kaneohe, HI

4:18 AM HST on February 09, 2016 (GMT -1000)
Kaneohe Bay Marine Corps Air Facility

Weather History for PHNG - January, 2014

Change the Weather History Date:

Friday, January 31, 2014

  Actual Average Record
Temperature  
Mean Temperature 75 °F -  
Max Temperature 82 °F 75 °F 84 °F (2007)
Min Temperature 68 °F 66 °F 55 °F (1998)
Cooling Degree Days 10    
Growing Degree Days 25 (Base 50)    
Moisture  
Dew Point 65 °F    
Average Humidity 77    
Maximum Humidity 89    
Minimum Humidity 57    
Precipitation  
Precipitation 0.17 in - - ()
Sea Level Pressure  
Sea Level Pressure 29.85 in    
Wind  
Wind Speed 2 mph (SSE)    
Max Wind Speed 10 mph    
Max Gust Speed 20 mph    
Visibility 8 miles    
Events Rain    
Averages and records for this station are not official NWS values.
T = Trace of Precipitation, MM = Missing Value Source: NWS Daily Summary

Daily Weather History Graph

Daily Weather History Graph

Search for Another Location

Airport or City:

Trip Planner

Search our weather history database for the weather conditions in past years. The results will help you decide how hot, cold, wet, or windy it might be!

Date:

Astronomy

Jan. 31, 2014 Rise Set
Actual Time 7:08 AM HST 6:20 PM HST
Civil Twilight 6:45 AM HST 6:43 PM HST
Nautical Twilight 6:18 AM HST 7:10 PM HST
Astronomical Twilight 5:52 AM HST 7:36 PM HST
Moon 7:40 AM HST (1/31) 7:40 PM HST (1/31)
Length of Visible Light 11h 58m
Length of Day
11h 11m
New Moon, 2% of the Moon is Illuminated
Jan 31
New Moon
Feb 6
First Quarter
Feb 14
Full
Feb 22
Last Quarter
Feb 28
New

Hourly Weather History & Observations

Time (HST) Temp. Heat Index Dew Point Humidity Pressure Visibility Wind Dir Wind Speed Gust Speed Precip Events Conditions
12:06 AM - - - N/A% 29.90 in 6.2 mi Calm Calm - N/A   Overcast
12:57 AM 71.6 °F - 64.9 °F 79% 29.88 in 9.0 mi Calm Calm - N/A   Mostly Cloudy
1:11 AM 69.8 °F - 64.4 °F 83% 29.90 in 6.2 mi Calm Calm - N/A   Scattered Clouds
1:57 AM 69.8 °F - 64.9 °F 84% 29.88 in 7.0 mi Calm Calm - N/A   Partly Cloudy
2:31 AM 69.8 °F - 64.4 °F 83% 29.88 in 6.2 mi Calm Calm - N/A   Mostly Cloudy
2:45 AM 69.8 °F - 64.4 °F 83% 29.88 in 6.2 mi Calm Calm - N/A   Scattered Clouds
2:57 AM 69.8 °F - 64.0 °F 82% 29.87 in 7.0 mi Calm Calm - N/A   Partly Cloudy
3:57 AM 68.0 °F - 63.0 °F 84% 29.86 in 7.0 mi Calm Calm - N/A   Clear
4:57 AM 68.0 °F - 63.0 °F 84% 29.85 in 8.0 mi Calm Calm - N/A   Overcast
5:57 AM 68.7 °F - 64.9 °F 88% 29.86 in 7.0 mi Calm Calm - N/A   Clear
6:57 AM 69.4 °F - 66.0 °F 89% 29.88 in 7.0 mi Calm Calm - N/A   Partly Cloudy
7:57 AM 70.2 °F - 64.0 °F 81% 29.89 in 7.0 mi Calm Calm - N/A   Clear
8:57 AM 70.2 °F - 64.0 °F 81% 29.90 in 8.0 mi Calm Calm - N/A   Scattered Clouds
9:57 AM 75.2 °F - 66.0 °F 73% 29.89 in 8.0 mi SSE 4.6 mph - N/A   Mostly Cloudy
10:57 AM 75.2 °F - 68.0 °F 78% 29.88 in 7.0 mi SE 4.6 mph - N/A   Scattered Clouds
11:57 AM 80.6 °F 83.2 °F 68.0 °F 65% 29.85 in 9.0 mi SE 8.1 mph - N/A   Scattered Clouds
12:57 PM 82.4 °F 84.8 °F 66.9 °F 59% 29.82 in 9.0 mi Variable 5.8 mph - N/A   Overcast
1:57 PM 82.4 °F 84.4 °F 66.0 °F 57% 29.80 in 10.0 mi South 6.9 mph - N/A   Mostly Cloudy
2:31 PM 77.0 °F - 66.2 °F 69% 29.82 in 6.0 mi South 5.8 mph 19.6 mph 0.02 in Rain Light Rain
2:57 PM 77.0 °F - 66.0 °F 69% 29.80 in 6.0 mi Variable 4.6 mph - 0.03 in   Haze
3:57 PM 77.0 °F - 66.0 °F 69% 29.80 in 1.2 mi SE 10.4 mph 18.4 mph 0.02 in Rain Rain
4:00 PM - - - N/A% 29.81 in - SE 9.2 mph 18.4 mph 0.01 in Rain Rain
4:57 PM 77.0 °F - 63.0 °F 62% 29.81 in 6.0 mi SSE 5.8 mph - 0.12 in Rain Light Rain
5:57 PM 73.4 °F - 66.0 °F 78% 29.81 in 6.0 mi South 3.5 mph - 0.00 in   Haze
6:57 PM 73.4 °F - 66.0 °F 78% 29.81 in 10.0 mi SE 3.5 mph - N/A   Mostly Cloudy
7:57 PM 73.4 °F - 64.9 °F 75% 29.83 in 10.0 mi SSE 5.8 mph - 0.00 in   Overcast
8:57 PM 73.4 °F - 66.0 °F 78% 29.84 in 10.0 mi SSE 5.8 mph - 0.00 in   Overcast
9:57 PM 71.6 °F - 64.9 °F 79% 29.83 in 10.0 mi SSE 4.6 mph - N/A   Overcast
10:57 PM 73.4 °F - 66.0 °F 78% 29.82 in 10.0 mi SE 3.5 mph - N/A   Mostly Cloudy
11:57 PM 73.4 °F - 66.0 °F 78% 29.81 in 10.0 mi SSE 5.8 mph - 0.00 in   Overcast